Simultaneous Nadir Overpasses (SNOs) Predictions

Prediction of SNOs between GOES-15 and TERRA Satellite Orbit:

Table of predicted SNOs for the next 14.0 days since TLE Epoch: 3/24/2018
Index Date Time (GOES-15) GOES-15 Lat,Lon TERRA Lat,Lon Distance(km) Time Diff (sec)
1 03/24/2018 07:25:03 0.03,-134.71 0.36,-133.32 158.22 80
2 03/24/2018 19:43:39 -0.04,-134.70 0.76,-138.48 429.93 80
3 03/26/2018 07:12:54 0.03,-134.62 0.96,-130.37 483.00 80
4 03/26/2018 19:31:30 -0.04,-134.60 0.16,-135.53 105.22 80
5 03/28/2018 19:22:01 -0.04,-134.51 -0.44,-132.58 219.25 80
6 03/29/2018 07:40:46 0.05,-134.47 -0.65,-137.77 375.41 80
7 03/31/2018 07:28:37 0.04,-134.37 -0.05,-134.82 51.13 80
8 04/02/2018 07:19:08 0.04,-134.27 0.55,-131.87 272.76 80
9 04/02/2018 19:37:44 -0.05,-134.25 0.57,-137.02 315.91 80
10 04/04/2018 19:28:16 -0.05,-134.14 -0.09,-134.09 7.68 80
11 04/06/2018 19:16:07 -0.06,-134.03 -0.68,-131.13 329.68 80




NCC Satellite Simultaneous Nadir Overpasses (SNOs) Prediction Service
